Location: Prairie State College
(41.5244°N, 87.6382°W)
Time: 20:43:38
(UTC-05:00)

Amateur Radio Satellites - All Passes

Search period start: 26 May 2015 20:13
Search period end: 27 May 2015 20:13
Location: Prairie State College, 41.5244°N, 87.6382°W

Satellite Date Start Highest point End Downlink Frequencies (MHz)
Time Altitude Azimuth
AIST 1 26 May 20:14:38 20:18:12 27° 90° (E) 20:21:51
STRAND 1 26 May 20:23:57 20:29:00 58° 288° (WNW) 20:34:03 437.568
SEEDS 26 May 20:24:58 20:28:55 40° 72° (ENE) 20:32:54 437.485
CINEMA 3 26 May 20:33:47 20:38:15 35° 70° (ENE) 20:42:50 145.822/145.860
COMPASS 1 26 May 20:38:42 20:42:42 46° 73° (ENE) 20:46:43 437.405
UWE-3 26 May 20:40:50 20:43:47 17° 66° (ENE) 20:46:52 435.000/436.395/437.385
Cosmos 2504 26 May 20:45:04 20:51:42 39° 73° (ENE) 20:58:22 435.465 / 435.565
PRISM 26 May 20:48:31 20:51:46 22° 292° (WNW) 20:54:57 437.425
AAUSAT CUBESAT 2 26 May 20:51:02 20:55:06 55° 74° (ENE) 20:59:12 437.432
FUNcube-1 26 May 20:51:53 20:54:43 17° 66° (ENE) 20:57:42 145.935
DOVE 4 26 May 20:52:37 20:57:44 82° 258° (WSW) 21:03:05 437.250
CUBESAT XI-V 26 May 20:54:26 20:56:18 12° 298° (WNW) 20:57:55 437.345
AIST 2 26 May 21:03:35 21:06:09 15° 321° (NW) 21:08:37 435.215
M-CUBED/EXP-1 PRIME 26 May 21:08:24 21:11:18 27° 294° (WNW) 21:14:09 437.505
AUBIESAT-1 26 May 21:16:56 21:19:45 25° 295° (WNW) 21:22:31 437.475
YUBILEINY 26 May 21:17:27 21:22:05 15° 283° (WNW) 21:26:07 435.215
Cosmos 2491 26 May 21:18:58 21:26:41 32° 292° (WNW) 21:34:17 435.465 / 435.565
DELFI C3 26 May 21:20:41 21:24:24 38° 72° (ENE) 21:28:10 145.870
BRITE-PL 26 May 21:26:07 21:29:48 19° 272° (W) 21:33:29 437.365/2234.400
CUBEBUG 2 26 May 21:27:14 21:31:55 60° 75° (ENE) 21:36:38 437.445
HUMSAT D 26 May 21:28:42 21:31:36 18° 67° (ENE) 21:34:37 437.325/437.525
GOMX 1 26 May 21:29:17 21:33:37 26° 268° (W) 21:38:03 467.674
ZACube-1 26 May 21:30:36 21:34:55 41° 72° (ENE) 21:39:14 437.345
UKube-1 26 May 21:34:18 21:37:32 21° 67° (ENE) 21:40:52 .
CANX-2 26 May 21:34:34 21:38:07 25° 266° (W) 21:41:36 2200.000
CUTE 1.7 + AOD 2 26 May 21:38:09 21:41:42 25° 266° (W) 21:45:12 437.475
RS-15 26 May 21:39:45 21:41:51 10° 264° (W) 21:42:32 29.354- 29.394
DX 1 26 May 21:42:07 21:45:47 27° 68° (ENE) 21:49:32 434.975-435.025
Oscar 11 26 May 21:43:48 21:48:09 82° 257° (WSW) 21:52:30 145.826/435.025
HO-68 26 May 21:49:39 21:55:58 31° 266° (W) 22:02:10 435.675
AIST 1 26 May 21:52:22 21:55:51 23° 288° (WNW) 21:59:18
VELOX 1 26 May 21:55:46 21:58:53 20° 66° (ENE) 22:02:10 145.980
CUBEBUG 1 26 May 21:57:53 21:58:08 10° 62° (ENE) 21:58:38 437.445
ESTCUBE 1 26 May 21:58:54 22:00:48 13° 63° (ENE) 22:02:54 437.505/2401.250
SEEDS 26 May 22:02:06 22:04:56 17° 269° (W) 22:07:38 437.485
CINEMA 3 26 May 22:11:11 22:15:29 28° 267° (W) 22:19:45 145.822/145.860
UWE-3 26 May 22:15:21 22:19:56 53° 261° (W) 22:24:32 435.000/436.395/437.385
CUSAT 1 26 May 22:15:48 22:17:37 11° 49° (NE) 22:19:47 437.405
COMPASS 1 26 May 22:16:14 22:18:40 15° 270° (W) 22:20:56 437.405
ANTELSAT 26 May 22:21:58 22:24:06 14° 89° (E) 22:26:26 437.575/2403.000
AISAT 26 May 22:26:07 22:30:16 41° 71° (ENE) 22:34:30 437.250
FUNcube-1 26 May 22:26:11 22:30:41 52° 261° (W) 22:35:10 145.935
50 SAT 26 May 22:27:38 22:31:25 42° 73° (ENE) 22:35:13 437.505
AAUSAT CUBESAT 2 26 May 22:29:19 22:31:08 12° 271° (W) 22:32:43 437.432
Cosmos 2504 26 May 22:38:33 22:45:03 36° 272° (W) 22:51:25 435.465 / 435.565
TIGRISAT 26 May 22:53:38 22:57:28 29° 95° (E) 23:01:15 435.000
DELFI C3 26 May 22:57:04 22:59:43 16° 269° (W) 23:02:14 145.870
BUGSAT 1 26 May 23:02:44 23:03:53 11° 88° (E) 23:05:17 437.445
HUMSAT D 26 May 23:02:58 23:07:05 42° 262° (W) 23:11:11 437.325/437.525
CUBEBUG 2 26 May 23:06:19 23:09:03 15° 271° (W) 23:11:34 437.445
ZACube-1 26 May 23:08:03 23:11:28 20° 268° (W) 23:14:45 437.345
UKube-1 26 May 23:09:29 23:13:29 35° 263° (W) 23:17:27 .
UNISAT 6 26 May 23:13:39 23:17:57 51° 99° (E) 23:22:09 437.425
DX 1 26 May 23:18:16 23:22:00 27° 265° (W) 23:25:42 434.975-435.025
QB50P1 26 May 23:18:30 23:22:04 26° 95° (E) 23:25:39 145.935-145.965
POLYITAN 1 26 May 23:20:19 23:23:58 27° 95° (E) 23:27:39 437.675
DANDE 26 May 23:22:25 23:29:11 30° 63° (ENE) 23:34:58 436.750
CUBEBUG 1 26 May 23:29:31 23:33:53 84° 257° (WSW) 23:38:18 437.445
VELOX 1 26 May 23:31:01 23:35:12 40° 262° (W) 23:39:25 145.980
ESTCUBE 1 26 May 23:32:43 23:37:10 68° 259° (W) 23:41:39 437.505/2401.250
ISS 26 May 23:46:23 23:49:35 64° 142° (SE) 23:52:49 145.825
GONETS M04 26 May 23:46:24 23:54:31 40° 71° (ENE) 00:02:39
NANOSAT C BR1 26 May 23:49:27 23:53:41 57° 100° (E) 23:57:52 145.865
CUSAT 1 26 May 23:55:13 00:02:31 61° 75° (ENE) 00:08:10 437.405
ANTELSAT 26 May 23:57:02 00:01:19 52° 287° (WNW) 00:05:30 437.575/2403.000
QB50P2 26 May 23:57:17 00:01:35 73° 101° (E) 00:05:51 145.880/145.840
AISAT 27 May 00:03:54 00:07:05 19° 268° (W) 00:10:09 437.250
50 SAT 27 May 00:04:02 00:06:23 15° 269° (W) 00:08:33 437.505
SPROUT 27 May 00:09:06 00:13:24 73° 76° (ENE) 00:17:45 437.525
POPSAT HIP 1 27 May 00:09:37 00:13:56 84° 284° (WNW) 00:18:11 437.405
DUCHIFAT 1 27 May 00:11:42 00:16:00 82° 285° (WNW) 00:20:15 145.980
TIGRISAT 27 May 00:30:31 00:34:08 25° 292° (WNW) 00:37:35 435.000
TISAT 1 27 May 00:33:07 00:37:21 82° 257° (WSW) 00:41:39 437.305
BUGSAT 1 27 May 00:35:36 00:39:52 63° 285° (WNW) 00:44:03 437.445
UNISAT 6 27 May 00:51:42 00:54:21 15° 295° (WNW) 00:56:49 437.425
QB50P1 27 May 00:54:14 00:57:54 27° 291° (WNW) 01:01:30 145.935-145.965
POLYITAN 1 27 May 00:56:13 00:59:49 26° 291° (WNW) 01:03:20 437.675
O/OREOS (USA 219) 27 May 00:56:57 01:00:49 28° 58° (ENE) 01:04:42 437.305
PCSat 27 May 00:57:59 01:03:18 61° 116° (ESE) 01:08:40 145.827
DANDE 27 May 01:05:20 01:12:59 54° 268° (W) 01:19:01 436.750
VERMONT LUNAR 27 May 01:11:25 01:12:56 13° 149° (SSE) 01:14:31 437.305
Cosmos 2499 27 May 01:15:01 01:20:25 24° 66° (ENE) 01:26:04 435.465 / 435.565
ITUPSAT 1 27 May 01:20:36 01:25:12 50° 72° (ENE) 01:29:49 437.325
ISS 27 May 01:23:33 01:26:15 23° 340° (NNW) 01:28:56 145.825
NANOSAT C BR1 27 May 01:26:50 01:29:05 14° 296° (WNW) 01:31:10 145.865
BEESAT 27 May 01:28:16 01:32:57 62° 74° (ENE) 01:37:40 436.000
BEESAT 3 27 May 01:29:47 01:31:26 12° 37° (NE) 01:33:12 437.485
QB50P2 27 May 01:35:36 01:36:57 11° 297° (WNW) 01:38:04 145.880/145.840
KKS-1 27 May 01:36:17 01:38:26 14° 63° (ENE) 01:40:48 437.445
SWISSCUBE 27 May 01:36:41 01:41:26 82° 75° (ENE) 01:46:13 437.505
Oscar 19 27 May 01:38:22 01:42:47 29° 94° (E) 01:47:14 437.125/150
CUSAT 1 27 May 01:39:06 01:44:23 22° 278° (W) 01:48:39 437.405
GONETS M04 27 May 01:43:15 01:51:30 45° 271° (W) 01:59:32
ITAMSAT 1 27 May 01:54:37 01:55:56 11° 86° (E) 01:57:38 435.822/435.867
SO-50 27 May 02:01:56 02:02:51 11° 107° (ESE) 02:04:04 436.795
BEESAT 2 27 May 02:17:15 02:20:39 24° 46° (NE) 02:24:02 435.950
Gurwin Techsat 1B 27 May 02:29:33 02:33:49 25° 93° (E) 02:38:12 435.225
O/OREOS (USA 219) 27 May 02:36:21 02:40:12 28° 256° (WSW) 02:43:58 437.305
STARS 27 May 02:38:29 02:42:33 36° 70° (ENE) 02:46:40 437.465
PCSat 27 May 02:42:53 02:47:11 23° 315° (NW) 02:51:24 145.827
VERMONT LUNAR 27 May 02:46:35 02:49:41 44° 164° (SSE) 02:52:46 437.305
ITUPSAT 1 27 May 03:00:14 03:03:26 17° 269° (W) 03:06:27 437.325
ISS 27 May 03:01:43 03:03:32 14° 360° (N) 03:05:21 145.825
BEESAT 3 27 May 03:05:59 03:10:06 87° 52° (NE) 03:14:07 437.485
Cosmos 2499 27 May 03:07:14 03:14:10 60° 267° (W) 03:21:09 435.465 / 435.565
BEESAT 27 May 03:08:42 03:11:17 14° 271° (W) 03:13:38 436.000
KKS-1 27 May 03:10:10 03:14:36 63° 259° (W) 03:19:06 437.445
PHONESAT 2.4 27 May 03:14:54 03:17:55 28° 156° (SSE) 03:20:58 2401.200-2431.200
AO-7 27 May 03:17:15 03:21:13 15° 86° (E) 03:25:49 29.400- 29.500
Oscar 19 27 May 03:17:31 03:22:12 35° 291° (WNW) 03:26:47 437.125/150
SWISSCUBE 27 May 03:19:24 03:20:00 10° 273° (W) 03:20:16 437.505
ITAMSAT 1 27 May 03:30:59 03:36:14 86° 285° (WNW) 03:41:29 435.822/435.867
SO-50 27 May 03:38:02 03:42:43 87° 303° (WNW) 03:47:36 436.795
AIST 2 27 May 03:44:29 03:48:38 52° 53° (NE) 03:52:42 435.215
HORYU 2 27 May 03:54:28 03:58:08 26° 95° (E) 04:01:52 437.375
BEESAT 2 27 May 03:55:03 03:58:49 34° 244° (WSW) 04:02:28 435.950
Gurwin Techsat 1B 27 May 04:08:59 04:14:00 42° 290° (WNW) 04:18:57 435.225
JAS-2 27 May 04:14:31 04:19:21 40° 98° (E) 04:24:22 435.910
STARS 27 May 04:15:43 04:19:09 21° 267° (W) 04:22:28 437.465
VERMONT LUNAR 27 May 04:23:33 04:26:45 76° 181° (S) 04:29:57 437.305
ISS 27 May 04:38:09 04:40:49 23° 20° (NNE) 04:43:30 145.825
MOZHAYETS 4 27 May 04:39:09 04:43:44 87° 74° (ENE) 04:48:19
PHONESAT 2.4 27 May 04:52:19 04:55:47 69° 173° (S) 04:59:14 2401.200-2431.200
AO-7 27 May 05:07:07 05:15:32 78° 106° (ESE) 05:23:55 29.400- 29.500
ITAMSAT 1 27 May 05:13:01 05:15:02 12° 301° (WNW) 05:16:47 435.822/435.867
SO-50 27 May 05:21:05 05:24:03 16° 324° (NW) 05:26:57 436.795
AIST 2 27 May 05:24:17 05:26:49 15° 249° (WSW) 05:29:12 435.215
HORYU 2 27 May 05:30:55 05:34:47 29° 291° (WNW) 05:38:35 437.375
Cosmos 2491 27 May 05:31:21 05:38:39 29° 66° (ENE) 05:46:08 435.465 / 435.565
CUTE-I 27 May 05:46:51 05:48:16 11° 86° (E) 05:50:04 437.470
JAS-2 27 May 06:00:13 06:04:22 24° 294° (WNW) 06:08:28 435.910
VERMONT LUNAR 27 May 06:00:46 06:03:49 42° 197° (SSW) 06:06:52 437.305
STRAND 1 27 May 06:02:01 06:06:06 26° 66° (ENE) 06:10:17 437.568
PRISM 27 May 06:03:25 06:06:40 24° 68° (ENE) 06:10:00 437.425
Cubesat XI-IV 27 May 06:05:44 06:09:17 18° 90° (E) 06:13:01 437.490
ISS 27 May 06:14:15 06:17:30 68° 218° (SW) 06:20:45 145.825
CUBESAT XI-V 27 May 06:18:06 06:22:40 78° 76° (ENE) 06:27:18 437.345
M-CUBED/EXP-1 PRIME 27 May 06:21:57 06:25:29 28° 66° (ENE) 06:28:51 437.505
YUBILEINY 27 May 06:24:28 06:30:55 25° 82° (E) 06:37:40 435.215
AUBIESAT-1 27 May 06:29:57 06:33:31 29° 66° (ENE) 06:36:54 437.475
PHONESAT 2.4 27 May 06:30:23 06:33:49 65° 190° (S) 06:37:16 2401.200-2431.200
AO-7 27 May 07:01:01 07:07:36 26° 305° (NW) 07:13:57 29.400- 29.500
CUTE-I 27 May 07:23:47 07:29:11 88° 290° (WNW) 07:34:34 437.470
Cosmos 2491 27 May 07:27:32 07:36:16 64° 267° (W) 07:44:52 435.465 / 435.565
RS-15 27 May 07:34:56 07:42:32 24° 103° (ESE) 07:50:48 29.354- 29.394
PRISM 27 May 07:38:30 07:42:02 27° 264° (W) 07:45:32 437.425
VERMONT LUNAR 27 May 07:39:13 07:40:33 12° 211° (SSW) 07:41:48 437.305
STRAND 1 27 May 07:40:22 07:45:07 39° 262° (W) 07:49:54 437.568
Cubesat XI-IV 27 May 07:44:33 07:49:50 58° 288° (WNW) 07:55:05 437.490
BRITE-PL 27 May 07:51:36 07:55:38 20° 89° (E) 07:59:42 437.365/2234.400
GOMX 1 27 May 07:54:39 07:56:44 13° 85° (E) 07:59:06 467.674
M-CUBED/EXP-1 PRIME 27 May 07:56:46 08:00:18 25° 259° (WSW) 08:03:34 437.505
AIST 1 27 May 07:58:08 08:02:33 83° 82° (E) 08:06:57
CUBESAT XI-V 27 May 08:00:14 08:00:47 10° 274° (W) 08:01:02 437.345
AUBIESAT-1 27 May 08:04:54 08:08:17 23° 259° (W) 08:11:25 437.475
PCSat 27 May 08:05:10 08:06:11 11° 33° (NNE) 08:07:25 145.827
PHONESAT 2.4 27 May 08:08:45 08:11:39 25° 205° (SSW) 08:14:32 2401.200-2431.200
YUBILEINY 27 May 08:18:16 08:27:01 71° 280° (W) 08:35:46 435.215
DOVE 4 27 May 08:52:35 08:56:59 29° 93° (E) 09:01:15 437.250
CUTE-I 27 May 09:06:11 09:08:34 13° 301° (WNW) 09:10:42 437.470
HO-68 27 May 09:15:54 09:22:50 52° 100° (E) 09:29:47 435.675
CANX-2 27 May 09:18:50 09:22:58 54° 99° (E) 09:27:05 2200.000
CUBEBUG 2 27 May 09:20:48 09:22:20 12° 87° (E) 09:24:07 437.445
ANTELSAT 27 May 09:21:12 09:23:48 15° 65° (ENE) 09:26:33 437.575/2403.000
CUTE 1.7 + AOD 2 27 May 09:22:21 09:26:28 53° 99° (E) 09:30:35 437.475
Cosmos 2504 27 May 09:23:10 09:30:22 35° 88° (E) 09:37:18 435.465 / 435.565
BRITE-PL 27 May 09:29:00 09:34:34 56° 288° (WNW) 09:39:51 437.365/2234.400
Cosmos 2491 27 May 09:29:27 09:31:33 11° 286° (WNW) 09:32:51 435.465 / 435.565
GOMX 1 27 May 09:30:15 09:35:40 80° 286° (WNW) 09:40:47 467.674
Oscar 11 27 May 09:32:03 09:34:54 18° 91° (E) 09:37:53 145.826/435.025
RS-15 27 May 09:42:43 09:53:38 86° 302° (WNW) 10:04:55 29.354- 29.394
SEEDS 27 May 09:44:30 09:48:41 79° 102° (ESE) 09:52:52 437.485
PCSat 27 May 09:45:45 09:51:01 50° 55° (NE) 09:56:18 145.827
TIGRISAT 27 May 09:52:17 09:56:18 29° 69° (ENE) 10:00:21 435.000
COMPASS 1 27 May 09:57:17 10:01:27 89° 89° (E) 10:05:37 437.405
CINEMA 3 27 May 10:05:34 10:10:20 78° 102° (ESE) 10:14:51 145.822/145.860
UWE-3 27 May 10:05:45 10:09:35 30° 95° (E) 10:13:22 435.000/436.395/437.385
AAUSAT CUBESAT 2 27 May 10:09:12 10:13:21 78° 284° (WNW) 10:17:28 437.432
QB50P1 27 May 10:11:46 10:14:56 21° 67° (ENE) 10:18:13 145.935-145.965
UNISAT 6 27 May 10:12:18 10:16:48 48° 73° (ENE) 10:21:17 437.425
POLYITAN 1 27 May 10:13:46 10:17:04 22° 68° (ENE) 10:20:30 437.675
FUNcube-1 27 May 10:15:02 10:18:46 28° 95° (E) 10:22:27 145.935
YUBILEINY 27 May 10:21:20 10:25:55 14° 305° (NW) 10:29:55 435.215
SO-50 27 May 10:30:04 10:33:06 16° 37° (NE) 10:36:14 436.795
DOVE 4 27 May 10:30:11 10:34:46 32° 291° (WNW) 10:39:03 437.250
DELFI C3 27 May 10:34:24 10:38:24 64° 101° (E) 10:42:23 145.870
NANOSAT C BR1 27 May 10:41:59 10:46:01 43° 72° (ENE) 10:50:06 145.865
HUMSAT D 27 May 10:47:07 10:50:46 29° 95° (E) 10:54:23 437.325/437.525
QB50P2 27 May 10:50:05 10:54:16 55° 74° (ENE) 10:58:30 145.880/145.840
CUBEBUG 2 27 May 10:55:11 10:59:36 61° 286° (WNW) 11:03:51 437.445
ZACube-1 27 May 10:55:18 10:59:40 85° 102° (ESE) 11:03:53 437.345
ANTELSAT 27 May 10:55:30 11:00:09 61° 260° (W) 11:04:46 437.575/2403.000
CANX-2 27 May 10:56:16 10:58:30 14° 295° (WNW) 11:00:33 2200.000
UKube-1 27 May 10:56:34 11:00:36 36° 98° (E) 11:04:37 .
CUTE 1.7 + AOD 2 27 May 10:59:43 11:02:00 14° 295° (WNW) 11:04:06 437.475
POPSAT HIP 1 27 May 11:02:10 11:06:26 74° 76° (ENE) 11:10:45 437.405
DUCHIFAT 1 27 May 11:03:50 11:08:05 75° 76° (ENE) 11:12:23 145.980
HO-68 27 May 11:04:07 11:10:20 32° 298° (WNW) 11:16:24 435.675
DX 1 27 May 11:05:39 11:09:56 49° 100° (E) 11:14:12 434.975-435.025
Oscar 11 27 May 11:07:15 11:11:18 40° 288° (WNW) 11:15:18 145.826/435.025
GOMX 1 27 May 11:11:07 11:12:55 11° 301° (WNW) 11:14:24 467.674
Cosmos 2504 27 May 11:15:36 11:23:37 48° 285° (WNW) 11:31:04 435.465 / 435.565
CUBEBUG 1 27 May 11:19:13 11:22:14 18° 91° (E) 11:25:23 437.445
VELOX 1 27 May 11:21:13 11:25:21 36° 97° (E) 11:29:30 145.980
CUSAT 1 27 May 11:21:30 11:24:29 13° 77° (ENE) 11:28:09 437.405
BUGSAT 1 27 May 11:25:24 11:29:33 90° 79° (ENE) 11:33:47 437.445
ESTCUBE 1 27 May 11:25:43 11:29:25 25° 94° (E) 11:33:11 437.505/2401.250
TIGRISAT 27 May 11:28:54 11:33:00 29° 265° (W) 11:37:02 435.000
PCSat 27 May 11:29:53 11:34:09 23° 252° (WSW) 11:38:16 145.827
50 SAT 27 May 11:38:18 11:42:10 65° 101° (E) 11:46:00 437.505
UWE-3 27 May 11:42:26 11:46:01 24° 292° (WNW) 11:49:27 435.000/436.395/437.385
CINEMA 3 27 May 11:44:56 11:46:52 12° 299° (WNW) 11:48:33 145.822/145.860
QB50P1 27 May 11:46:39 11:50:36 35° 263° (W) 11:54:33 145.935-145.965
POLYITAN 1 27 May 11:48:55 11:52:50 33° 264° (W) 11:56:44 437.675
UNISAT 6 27 May 11:50:39 11:53:52 18° 269° (W) 11:56:54 437.425
FUNcube-1 27 May 11:51:27 11:55:00 25° 292° (WNW) 11:58:25 145.935
AISAT 27 May 11:52:45 11:57:17 84° 104° (ESE) 12:01:46 437.250
SPROUT 27 May 11:57:34 11:59:24 13° 89° (E) 12:01:26 437.525
RS-15 27 May 11:58:22 12:07:55 31° 331° (NNW) 12:17:37 29.354- 29.394
SO-50 27 May 12:09:26 12:14:26 86° 57° (ENE) 12:19:20 436.795
DELFI C3 27 May 12:11:52 12:13:02 11° 296° (WNW) 12:14:00 145.870
TISAT 1 27 May 12:18:49 12:21:19 16° 91° (E) 12:23:59 437.305
NANOSAT C BR1 27 May 12:19:17 12:22:06 17° 269° (W) 12:24:47 145.865
HUMSAT D 27 May 12:23:05 12:26:23 23° 292° (WNW) 12:29:35 437.325/437.525
QB50P2 27 May 12:28:27 12:30:34 13° 271° (W) 12:32:29 145.880/145.840
DANDE 27 May 12:31:04 12:37:23 35° 87° (E) 12:44:49 436.750
UKube-1 27 May 12:33:12 12:36:32 21° 293° (WNW) 12:39:45 .
DX 1 27 May 12:43:00 12:45:50 16° 295° (WNW) 12:48:30 434.975-435.025
GONETS M04 27 May 12:47:23 12:55:35 46° 89° (E) 13:03:54
CUBEBUG 1 27 May 12:54:36 12:58:49 42° 288° (WNW) 13:02:59 437.445
Oscar 19 27 May 12:55:09 13:00:00 43° 70° (ENE) 13:04:56 437.125/150
VELOX 1 27 May 12:58:14 13:01:43 22° 293° (WNW) 13:05:07 145.980
CUSAT 1 27 May 12:58:27 13:05:44 69° 95° (E) 13:14:01 437.405
ESTCUBE 1 27 May 13:02:17 13:06:20 32° 290° (WNW) 13:10:19 437.505/2401.250
ITAMSAT 1 27 May 13:11:44 13:15:15 19° 63° (ENE) 13:18:56 435.822/435.867
50 SAT 27 May 13:16:06 13:16:24 10° 296° (WNW) 13:16:29 437.505
ITUPSAT 1 27 May 13:22:55 13:24:54 13° 88° (E) 13:27:10 437.325
BEESAT 27 May 13:29:42 13:32:26 16° 90° (E) 13:35:23 436.000
SPROUT 27 May 13:31:38 13:35:55 57° 286° (WNW) 13:40:08 437.525
AISAT 27 May 13:32:08 13:33:16 11° 299° (WNW) 13:34:08 437.250
SWISSCUBE 27 May 13:37:41 13:41:12 21° 92° (E) 13:44:50 437.505
Gurwin Techsat 1B 27 May 13:50:36 13:55:30 40° 70° (ENE) 14:00:27 435.225
SO-50 27 May 13:52:31 13:54:21 12° 252° (WSW) 13:55:53 436.795
Cosmos 2499 27 May 13:53:03 13:58:20 20° 84° (E) 14:03:44 435.465 / 435.565
TISAT 1 27 May 13:53:17 13:57:23 45° 288° (WNW) 14:01:26 437.305
DANDE 27 May 14:13:15 14:20:20 52° 288° (WNW) 14:28:34 436.750
AO-7 27 May 14:16:06 14:22:16 25° 55° (NE) 14:28:44 29.400- 29.500
RS-15 27 May 14:17:06 14:25:14 22° 5° (N) 14:33:41 29.354- 29.394
JAS-2 27 May 14:27:49 14:32:21 21° 65° (ENE) 14:36:44 435.910
Oscar 19 27 May 14:35:23 14:39:34 24° 267° (W) 14:43:39 437.125/150
CUSAT 1 27 May 14:42:44 14:49:14 28° 297° (WNW) 14:56:03 437.405
GONETS M04 27 May 14:44:21 14:52:35 40° 289° (WNW) 15:00:45
ITAMSAT 1 27 May 14:49:18 14:54:22 56° 259° (W) 14:59:29 435.822/435.867
HORYU 2 27 May 14:53:00 14:56:39 26° 68° (ENE) 15:00:23 437.375
ITUPSAT 1 27 May 14:58:35 15:03:21 68° 287° (WNW) 15:08:07 437.325
KKS-1 27 May 15:01:41 15:05:18 24° 94° (E) 15:08:59 437.445
BEESAT 27 May 15:06:01 15:10:43 56° 287° (WNW) 15:15:22 436.000
O/OREOS (USA 219) 27 May 15:09:23 15:13:19 31° 105° (ESE) 15:17:19 437.305
SWISSCUBE 27 May 15:14:45 15:19:16 42° 289° (WNW) 15:23:45 437.505
Gurwin Techsat 1B 27 May 15:31:12 15:35:38 26° 267° (W) 15:39:59 435.225
Cosmos 2499 27 May 15:42:43 15:50:52 75° 279° (W) 15:58:26 435.465 / 435.565
DANDE 27 May 16:03:21 16:06:04 11° 311° (NW) 16:08:18 436.750
STARS 27 May 16:03:58 16:08:24 71° 102° (ESE) 16:12:48 437.465
AO-7 27 May 16:06:00 16:14:18 81° 254° (WSW) 16:22:41 29.400- 29.500
JAS-2 27 May 16:10:28 16:17:09 65° 258° (WSW) 16:23:04 435.910
HORYU 2 27 May 16:29:12 16:33:12 31° 264° (W) 16:37:10 437.375
RS-15 27 May 16:31:26 16:42:00 41° 38° (NE) 16:53:09 29.354- 29.394
MOZHAYETS 4 27 May 16:34:56 16:38:16 20° 92° (E) 16:41:44
YUBILEINY 27 May 16:35:26 16:37:35 11° 52° (NE) 16:40:25 435.215
KKS-1 27 May 16:37:59 16:42:00 32° 290° (WNW) 16:45:55 437.445
O/OREOS (USA 219) 27 May 16:48:55 16:52:46 26° 302° (WNW) 16:56:34 437.305
BEESAT 3 27 May 17:00:29 17:02:47 15° 111° (ESE) 17:05:15 437.485
CUTE-I 27 May 17:07:46 17:11:33 21° 64° (ENE) 17:15:31 437.470
Cubesat XI-IV 27 May 17:27:39 17:32:13 31° 67° (ENE) 17:36:53 437.490
Cosmos 2499 27 May 17:41:31 17:45:29 14° 301° (WNW) 17:48:49 435.465 / 435.565
STARS 27 May 17:42:30 17:44:20 12° 297° (WNW) 17:45:56 437.465
AIST 2 27 May 17:45:55 17:46:37 10° 109° (ESE) 17:47:35 435.215
BEESAT 2 27 May 17:48:25 17:52:15 40° 117° (ESE) 17:56:09 435.950
AO-7 27 May 18:03:52 18:08:34 15° 274° (W) 18:12:43 29.400- 29.500
MOZHAYETS 4 27 May 18:11:25 18:15:41 39° 289° (WNW) 18:19:54
CUBESAT XI-V 27 May 18:15:28 18:18:48 20° 91° (E) 18:22:17 437.345
YUBILEINY 27 May 18:28:17 18:36:52 60° 77° (ENE) 18:45:27 435.215
Cosmos 2491 27 May 18:33:12 18:40:33 32° 85° (E) 18:48:09 435.465 / 435.565
BEESAT 3 27 May 18:36:24 18:40:24 50° 307° (NW) 18:44:25 437.485
RS-15 27 May 18:43:54 18:55:30 73° 242° (WSW) 19:07:30 29.354- 29.394
CUTE-I 27 May 18:46:06 18:51:17 54° 260° (W) 18:56:30 437.470
BRITE-PL 27 May 19:02:18 19:06:15 23° 65° (ENE) 19:10:32 437.365/2234.400
GOMX 1 27 May 19:02:26 19:05:19 16° 62° (ENE) 19:08:30 467.674
Cubesat XI-IV 27 May 19:07:27 19:12:16 34° 264° (W) 19:17:05 437.490
PRISM 27 May 19:20:01 19:23:53 37° 98° (E) 19:27:46 437.425
AIST 2 27 May 19:20:24 19:24:40 77° 303° (WNW) 19:28:58 435.215
BEESAT 2 27 May 19:27:11 19:30:30 22° 315° (NW) 19:33:46 435.950
M-CUBED/EXP-1 PRIME 27 May 19:38:05 19:40:04 15° 98° (E) 19:42:10 437.505
HO-68 27 May 19:44:40 19:51:10 40° 65° (ENE) 19:57:46 435.675
AUBIESAT-1 27 May 19:45:25 19:47:31 16° 99° (E) 19:49:45 437.475
STRAND 1 27 May 19:50:12 19:55:21 69° 103° (ESE) 20:00:29 437.568
CUBESAT XI-V 27 May 19:52:01 19:56:29 43° 288° (WNW) 20:00:55 437.345
DOVE 4 27 May 19:57:38 20:02:08 32° 69° (ENE) 20:06:50 437.250
